Wetterdaten: Montag, 01.06.2026
Datum Zeit Außen Temp. Server Temp. +20m Feuchte Feuchte +20m Luftdruck Regen Wind Richtung Richtung Sonnenschein Helligkeit Solar Taupunkt
01.06.2026 00:00 14,5 °C 23,5 °C 13,7 °C 83 % 85 % 1013,6 hPa 0,00 l/m² 51,3 km/h (7 Bft) S-SW 195 ° 0 min 0 lux 0 W/m² 11,6 °C
01.06.2026 00:15 14,4 °C 23,5 °C 13,6 °C 83 % 86 % 1013,6 hPa 0,00 l/m² 51,3 km/h (7 Bft) S-SW 195 ° 0 min 0 lux 0 W/m² 11,5 °C
01.06.2026 00:30 14,3 °C 23,4 °C 13,4 °C 83 % 87 % 1013,6 hPa 0,00 l/m² 51,3 km/h (7 Bft) S-SW 195 ° 0 min 0 lux 0 W/m² 11,5 °C
01.06.2026 00:45 14,3 °C 23,4 °C 13,2 °C 83 % 88 % 1013,6 hPa 0,00 l/m² 51,3 km/h (7 Bft) S-SW 195 ° 0 min 0 lux 0 W/m² 11,5 °C
01.06.2026 01:00 14,1 °C 23,4 °C 12,9 °C 82 % 88 % 1013,6 hPa 0,22 l/m² 51,3 km/h (7 Bft) S-SW 195 ° 0 min 0 lux 0 W/m² 11,1 °C
01.06.2026 01:15 14,0 °C 23,3 °C 13,0 °C 82 % 90 % 1013,6 hPa 0,00 l/m² 51,3 km/h (7 Bft) S-SW 195 ° 0 min 0 lux 0 W/m² 11,0 °C
01.06.2026 01:30 14,0 °C 23,3 °C 12,9 °C 82 % 90 % 1013,6 hPa 0,00 l/m² 51,3 km/h (7 Bft) S-SW 195 ° 0 min 0 lux 0 W/m² 11,0 °C
01.06.2026 01:45 13,9 °C 23,2 °C 12,8 °C 82 % 91 % 1013,6 hPa 0,00 l/m² 51,3 km/h (7 Bft) S-SW 195 ° 0 min 0 lux 0 W/m² 10,9 °C
01.06.2026 02:00 13,9 °C 23,1 °C 12,7 °C 82 % 91 % 1013,6 hPa 0,00 l/m² 51,3 km/h (7 Bft) S-SW 195 ° 0 min 0 lux 0 W/m² 10,9 °C
01.06.2026 02:15 13,9 °C 23,1 °C 12,7 °C 82 % 91 % 1013,6 hPa 0,00 l/m² 51,3 km/h (7 Bft) S-SW 195 ° 0 min 0 lux 0 W/m² 10,9 °C
01.06.2026 02:30 14,1 °C 23,0 °C 12,7 °C 82 % 92 % 1013,6 hPa 0,00 l/m² 51,3 km/h (7 Bft) S-SW 195 ° 0 min 0 lux 0 W/m² 11,1 °C
01.06.2026 02:45 14,1 °C 23,0 °C 12,7 °C 82 % 92 % 1013,6 hPa 0,00 l/m² 51,3 km/h (7 Bft) S-SW 195 ° 0 min 0 lux 0 W/m² 11,1 °C
01.06.2026 03:00 14,1 °C 23,0 °C 12,7 °C 82 % 92 % 1013,6 hPa 0,00 l/m² 51,3 km/h (7 Bft) S-SW 195 ° 0 min 0 lux 0 W/m² 11,1 °C
01.06.2026 03:15 14,1 °C 23,0 °C 12,6 °C 82 % 92 % 1013,6 hPa 0,00 l/m² 51,3 km/h (7 Bft) S-SW 195 ° 0 min 0 lux 0 W/m² 11,1 °C
01.06.2026 03:30 13,9 °C 23,0 °C 12,5 °C 82 % 93 % 1013,6 hPa 0,00 l/m² 51,3 km/h (7 Bft) S-SW 195 ° 0 min 0 lux 0 W/m² 10,9 °C
01.06.2026 03:45 14,1 °C 22,9 °C 12,5 °C 82 % 93 % 1013,6 hPa 0,00 l/m² 51,3 km/h (7 Bft) S-SW 195 ° 0 min 0 lux 0 W/m² 11,1 °C
01.06.2026 04:00 14,1 °C 22,9 °C 12,4 °C 82 % 92 % 1013,6 hPa 0,00 l/m² 51,3 km/h (7 Bft) S-SW 195 ° 0 min 0 lux 0 W/m² 11,1 °C
01.06.2026 04:15 14,1 °C 22,8 °C 12,4 °C 82 % 93 % 1013,6 hPa 0,00 l/m² 51,3 km/h (7 Bft) S-SW 195 ° 0 min 0 lux 0 W/m² 11,1 °C
01.06.2026 04:30 14,0 °C 22,8 °C 12,3 °C 82 % 93 % 1013,6 hPa 0,00 l/m² 51,3 km/h (7 Bft) S-SW 195 ° 0 min 0 lux 0 W/m² 11,0 °C
01.06.2026 04:45 14,0 °C 22,7 °C 12,3 °C 82 % 93 % 1013,6 hPa 0,00 l/m² 51,3 km/h (7 Bft) S-SW 195 ° 0 min 0 lux 0 W/m² 11,0 °C
01.06.2026 05:00 14,1 °C 22,6 °C 12,2 °C 82 % 94 % 1013,6 hPa 0,00 l/m² 51,3 km/h (7 Bft) S-SW 195 ° 0 min 107 lux 0 W/m² 11,1 °C
01.06.2026 05:15 14,0 °C 22,6 °C 12,2 °C 82 % 94 % 1014,7 hPa 0,00 l/m² 51,3 km/h (7 Bft) S-SW 195 ° 0 min 292 lux 2 W/m² 11,0 °C
01.06.2026 05:30 14,0 °C 22,6 °C 12,0 °C 82 % 94 % 1014,7 hPa 0,00 l/m² 51,3 km/h (7 Bft) S-SW 195 ° 0 min 750 lux 5 W/m² 11,0 °C
01.06.2026 05:45 13,9 °C 22,5 °C 12,0 °C 82 % 94 % 1014,7 hPa 0,00 l/m² 51,3 km/h (7 Bft) S-SW 195 ° 0 min 1,41 klux 9 W/m² 10,9 °C
01.06.2026 06:00 14,0 °C 22,5 °C 12,1 °C 82 % 95 % 1014,7 hPa 0,00 l/m² 51,3 km/h (7 Bft) S-SW 195 ° 0 min 1,92 klux 13 W/m² 11,0 °C
01.06.2026 06:15 14,1 °C 22,5 °C 12,1 °C 82 % 95 % 1014,7 hPa 0,00 l/m² 51,3 km/h (7 Bft) S-SW 195 ° 0 min 2,81 klux 18 W/m² 11,1 °C
01.06.2026 06:30 14,3 °C 22,5 °C 12,4 °C 83 % 95 % 1014,6 hPa 0,00 l/m² 51,3 km/h (7 Bft) S-SW 195 ° 0 min 4,77 klux 31 W/m² 11,5 °C
01.06.2026 06:45 14,6 °C 22,4 °C 12,5 °C 82 % 94 % 1014,6 hPa 0,00 l/m² 51,3 km/h (7 Bft) S-SW 195 ° 0 min 6,75 klux 44 W/m² 11,6 °C
01.06.2026 07:00 14,9 °C 22,5 °C 13,3 °C 83 % 94 % 1014,6 hPa 0,00 l/m² 51,3 km/h (7 Bft) S-SW 195 ° 0 min 8,80 klux 57 W/m² 12,0 °C
01.06.2026 07:15 15,1 °C 22,5 °C 14,0 °C 83 % 94 % 1014,6 hPa 0,00 l/m² 51,3 km/h (7 Bft) S-SW 195 ° 0 min 12,2 klux 79 W/m² 12,2 °C
01.06.2026 07:30 17,1 °C 22,8 °C 17,2 °C 80 % 60 % 1014,3 hPa 0,00 l/m² 51,3 km/h (7 Bft) S-SW 195 ° 0 min 12,0 klux 78 W/m² 13,6 °C
01.06.2026 07:45 18,1 °C 22,9 °C 18,4 °C 82 % 60 % 1014,2 hPa 0,00 l/m² 51,3 km/h (7 Bft) S-SW 195 ° 0 min 16,2 klux 106 W/m² 15,0 °C
01.06.2026 08:00 19,6 °C 23,0 °C 19,2 °C 73 % 46 % 1014,1 hPa 0,00 l/m² 51,3 km/h (7 Bft) S-SW 195 ° 15 min 33,7 klux 220 W/m² 14,6 °C
01.06.2026 08:15 20,0 °C 23,2 °C 20,3 °C 72 % 42 % 1014,1 hPa 0,00 l/m² 51,3 km/h (7 Bft) S-SW 195 ° 15 min 44,5 klux 290 W/m² 14,8 °C
01.06.2026 08:30 20,6 °C 23,4 °C 18,0 °C 65 % 47 % 1015,0 hPa 0,00 l/m² 51,3 km/h (7 Bft) S-SW 195 ° 15 min 46,0 klux 300 W/m² 13,8 °C
01.06.2026 08:45 20,2 °C 23,5 °C 18,2 °C 64 % 47 % 1015,1 hPa 0,00 l/m² 51,3 km/h (7 Bft) S-SW 195 ° 15 min 55,5 klux 362 W/m² 13,2 °C
01.06.2026 09:00 19,3 °C 23,7 °C 17,8 °C 65 % 48 % 1015,2 hPa 0,00 l/m² 51,3 km/h (7 Bft) S-SW 195 ° 15 min 56,9 klux 371 W/m² 12,6 °C
01.06.2026 09:15 18,7 °C 23,8 °C 17,3 °C 65 % 48 % 1015,2 hPa 0,00 l/m² 51,3 km/h (7 Bft) S-SW 195 ° 15 min 63,3 klux 412 W/m² 12,0 °C
01.06.2026 09:30 17,9 °C 23,9 °C 17,0 °C 66 % 48 % 1015,3 hPa 0,00 l/m² 51,3 km/h (7 Bft) S-SW 195 ° 15 min 63,6 klux 414 W/m² 11,5 °C
01.06.2026 09:45 17,4 °C 23,9 °C 17,1 °C 66 % 46 % 1015,3 hPa 0,00 l/m² 51,3 km/h (7 Bft) S-SW 195 ° 15 min 58,0 klux 378 W/m² 11,0 °C
01.06.2026 10:00 17,8 °C 24,2 °C 17,5 °C 62 % 43 % 1015,3 hPa 0,00 l/m² 51,3 km/h (7 Bft) S-SW 195 ° 15 min 58,9 klux 384 W/m² 10,4 °C
01.06.2026 10:15 17,9 °C 24,4 °C 17,6 °C 60 % 42 % 1015,3 hPa 0,00 l/m² 51,3 km/h (7 Bft) S-SW 195 ° 15 min 61,5 klux 401 W/m² 10,0 °C
01.06.2026 10:30 18,3 °C 24,5 °C 18,3 °C 62 % 43 % 1015,3 hPa 0,00 l/m² 51,3 km/h (7 Bft) S-SW 195 ° 15 min 63,4 klux 413 W/m² 10,9 °C
01.06.2026 10:45 18,1 °C 24,7 °C 18,3 °C 62 % 42 % 1015,3 hPa 0,00 l/m² 51,3 km/h (7 Bft) S-SW 195 ° 15 min 66,4 klux 433 W/m² 10,7 °C
01.06.2026 11:00 19,1 °C 24,7 °C 19,2 °C 61 % 41 % 1015,2 hPa 0,00 l/m² 51,3 km/h (7 Bft) S-SW 195 ° 15 min 69,6 klux 453 W/m² 11,4 °C
01.06.2026 11:15 19,3 °C 24,8 °C 20,0 °C 61 % 41 % 1015,2 hPa 0,00 l/m² 51,3 km/h (7 Bft) S-SW 195 ° 15 min 87,0 klux 567 W/m² 11,6 °C
01.06.2026 11:30 19,5 °C 24,8 °C 20,0 °C 61 % 40 % 1015,1 hPa 0,00 l/m² 51,3 km/h (7 Bft) S-SW 195 ° 15 min 82,8 klux 539 W/m² 11,8 °C
01.06.2026 11:45 20,1 °C 24,8 °C 20,0 °C 57 % 39 % 1015,1 hPa 0,00 l/m² 51,3 km/h (7 Bft) S-SW 195 ° 15 min 82,1 klux 535 W/m² 11,3 °C
01.06.2026 12:00 20,2 °C 24,8 °C 20,3 °C 58 % 40 % 1015,1 hPa 0,00 l/m² 51,3 km/h (7 Bft) S-SW 195 ° 15 min 84,8 klux 552 W/m² 11,7 °C
01.06.2026 12:15 20,6 °C 24,8 °C 21,5 °C 58 % 38 % 1015,0 hPa 0,00 l/m² 51,3 km/h (7 Bft) S-SW 195 ° 15 min 92,1 klux 600 W/m² 12,0 °C
01.06.2026 12:30 21,1 °C 24,8 °C 21,5 °C 55 % 37 % 1015,0 hPa 0,00 l/m² 51,3 km/h (7 Bft) S-SW 195 ° 0 min 40,3 klux 263 W/m² 11,7 °C
01.06.2026 12:45 20,9 °C 24,8 °C 21,1 °C 57 % 39 % 1016,0 hPa 0,00 l/m² 51,3 km/h (7 Bft) S-SW 195 ° 0 min 63,8 klux 416 W/m² 12,1 °C
01.06.2026 13:00 21,0 °C 24,8 °C 21,4 °C 56 % 38 % 1015,0 hPa 0,00 l/m² 51,3 km/h (7 Bft) S-SW 195 ° 0 min 63,6 klux 414 W/m² 11,9 °C
01.06.2026 13:15 21,4 °C 24,8 °C 22,6 °C 58 % 37 % 1014,9 hPa 0,00 l/m² 51,3 km/h (7 Bft) S-SW 195 ° 0 min 42,7 klux 278 W/m² 12,8 °C
01.06.2026 13:30 20,7 °C 24,9 °C 22,3 °C 59 % 37 % 1015,0 hPa 0,00 l/m² 51,3 km/h (7 Bft) S-SW 195 ° 0 min 23,9 klux 156 W/m² 12,4 °C
01.06.2026 13:45 20,8 °C 24,9 °C 22,7 °C 59 % 37 % 1016,0 hPa 0,00 l/m² 51,3 km/h (7 Bft) S-SW 195 ° 15 min 86,4 klux 563 W/m² 12,5 °C
01.06.2026 14:00 22,0 °C 25,0 °C 23,7 °C 57 % 35 % 1015,9 hPa 0,00 l/m² 51,3 km/h (7 Bft) S-SW 195 ° 0 min 61,4 klux 400 W/m² 13,1 °C
01.06.2026 14:15 22,9 °C 25,1 °C 23,7 °C 54 % 34 % 1015,8 hPa 0,00 l/m² 51,3 km/h (7 Bft) S-SW 195 ° 15 min 103 klux 671 W/m² 13,1 °C
01.06.2026 14:30 21,8 °C 25,1 °C 22,7 °C 54 % 35 % 1014,9 hPa 0,00 l/m² 51,3 km/h (7 Bft) S-SW 195 ° 15 min 78,5 klux 511 W/m² 12,1 °C
01.06.2026 14:45 20,7 °C 25,1 °C 21,3 °C 57 % 39 % 1015,0 hPa 0,00 l/m² 51,3 km/h (7 Bft) S-SW 195 ° 0 min 16,1 klux 105 W/m² 11,9 °C
01.06.2026 15:00 22,0 °C 25,2 °C 22,8 °C 55 % 36 % 1014,9 hPa 0,00 l/m² 51,3 km/h (7 Bft) S-SW 195 ° 15 min 100 klux 651 W/m² 12,5 °C
01.06.2026 15:15 22,8 °C 25,3 °C 24,3 °C 50 % 32 % 1014,8 hPa 0,00 l/m² 51,3 km/h (7 Bft) S-SW 195 ° 15 min 97,9 klux 638 W/m² 11,8 °C
01.06.2026 15:30 22,4 °C 25,4 °C 23,6 °C 53 % 34 % 1014,8 hPa 0,00 l/m² 51,3 km/h (7 Bft) S-SW 195 ° 15 min 85,0 klux 554 W/m² 12,3 °C
01.06.2026 15:45 22,9 °C 25,5 °C 24,4 °C 50 % 32 % 1014,8 hPa 0,00 l/m² 51,3 km/h (7 Bft) S-SW 195 ° 15 min 76,0 klux 495 W/m² 11,9 °C
01.06.2026 16:00 22,7 °C 25,7 °C 24,1 °C 50 % 32 % 1014,8 hPa 0,00 l/m² 51,3 km/h (7 Bft) S-SW 195 ° 15 min 75,3 klux 491 W/m² 11,7 °C
01.06.2026 16:15 22,0 °C 25,7 °C 24,0 °C 50 % 31 % 1014,9 hPa 0,00 l/m² 51,3 km/h (7 Bft) S-SW 195 ° 15 min 70,7 klux 461 W/m² 11,1 °C
01.06.2026 16:30 23,2 °C 25,9 °C 25,0 °C 48 % 29 % 1014,8 hPa 0,00 l/m² 51,3 km/h (7 Bft) S-SW 195 ° 15 min 72,4 klux 472 W/m² 11,6 °C
01.06.2026 16:45 23,5 °C 25,9 °C 24,7 °C 45 % 25 % 1014,7 hPa 0,00 l/m² 51,3 km/h (7 Bft) S-SW 195 ° 15 min 73,5 klux 479 W/m² 10,9 °C
01.06.2026 17:00 23,4 °C 25,9 °C 23,2 °C 44 % 27 % 1013,7 hPa 0,00 l/m² 51,3 km/h (7 Bft) S-SW 195 ° 15 min 68,7 klux 448 W/m² 10,4 °C
01.06.2026 17:15 23,4 °C 26,0 °C 24,5 °C 44 % 24 % 1013,7 hPa 0,00 l/m² 51,3 km/h (7 Bft) S-SW 195 ° 15 min 67,8 klux 442 W/m² 10,4 °C
01.06.2026 17:30 23,1 °C 26,2 °C 23,5 °C 43 % 22 % 1013,7 hPa 0,00 l/m² 51,3 km/h (7 Bft) S-SW 195 ° 15 min 59,2 klux 386 W/m² 9,8 °C
01.06.2026 17:45 22,4 °C 26,3 °C 22,0 °C 41 % 21 % 1013,8 hPa 0,00 l/m² 51,3 km/h (7 Bft) S-SW 195 ° 15 min 55,7 klux 363 W/m² 8,5 °C
01.06.2026 18:00 22,5 °C 26,3 °C 22,8 °C 42 % 15 % 1013,8 hPa 0,00 l/m² 51,3 km/h (7 Bft) S-SW 195 ° 15 min 51,9 klux 338 W/m² 8,9 °C
01.06.2026 18:15 22,5 °C 26,3 °C 22,6 °C 41 % 15 % 1013,8 hPa 0,00 l/m² 51,3 km/h (7 Bft) S-SW 195 ° 15 min 45,2 klux 294 W/m² 8,6 °C
01.06.2026 18:30 23,1 °C 26,4 °C 23,5 °C 39 % 15 % 1013,7 hPa 0,00 l/m² 51,3 km/h (7 Bft) S-SW 195 ° 15 min 35,2 klux 229 W/m² 8,4 °C
01.06.2026 18:45 23,4 °C 26,4 °C 24,5 °C 38 % 15 % 1013,7 hPa 0,00 l/m² 51,3 km/h (7 Bft) S-SW 195 ° 0 min 29,5 klux 192 W/m² 8,3 °C
01.06.2026 19:00 23,1 °C 26,4 °C 24,3 °C 39 % 15 % 1013,7 hPa 0,00 l/m² 51,3 km/h (7 Bft) S-SW 195 ° 15 min 29,4 klux 192 W/m² 8,4 °C
01.06.2026 19:15 23,3 °C 26,4 °C 23,7 °C 39 % 15 % 1013,7 hPa 0,00 l/m² 51,3 km/h (7 Bft) S-SW 195 ° 0 min 20,0 klux 130 W/m² 8,6 °C
01.06.2026 19:30 22,6 °C 26,4 °C 22,8 °C 40 % 15 % 1013,8 hPa 0,00 l/m² 51,3 km/h (7 Bft) S-SW 195 ° 0 min 16,5 klux 107 W/m² 8,3 °C
01.06.2026 19:45 21,7 °C 26,3 °C 22,8 °C 46 % 15 % 1013,9 hPa 0,00 l/m² 51,3 km/h (7 Bft) S-SW 195 ° 0 min 10,6 klux 69 W/m² 9,6 °C
01.06.2026 20:00 21,1 °C 26,2 °C 21,8 °C 47 % 21 % 1013,9 hPa 0,00 l/m² 51,3 km/h (7 Bft) S-SW 195 ° 0 min 8,80 klux 57 W/m² 9,3 °C
01.06.2026 20:15 20,7 °C 26,1 °C 21,1 °C 49 % 25 % 1014,0 hPa 0,00 l/m² 51,3 km/h (7 Bft) S-SW 195 ° 0 min 6,76 klux 44 W/m² 9,6 °C
01.06.2026 20:30 20,4 °C 26,0 °C 20,2 °C 54 % 39 % 1014,0 hPa 0,00 l/m² 51,3 km/h (7 Bft) S-SW 195 ° 0 min 5,55 klux 36 W/m² 10,8 °C
01.06.2026 20:45 19,2 °C 25,9 °C 19,1 °C 59 % 44 % 1014,1 hPa 0,00 l/m² 51,3 km/h (7 Bft) S-SW 195 ° 0 min 4,61 klux 30 W/m² 11,0 °C
01.06.2026 21:00 18,2 °C 25,9 °C 18,3 °C 63 % 45 % 1014,2 hPa 0,00 l/m² 51,3 km/h (7 Bft) S-SW 195 ° 0 min 3,42 klux 22 W/m² 11,0 °C
01.06.2026 21:15 17,3 °C 25,8 °C 17,2 °C 67 % 48 % 1014,3 hPa 0,00 l/m² 51,3 km/h (7 Bft) S-SW 195 ° 0 min 2,17 klux 14 W/m² 11,1 °C
01.06.2026 21:30 16,8 °C 25,6 °C 16,6 °C 69 % 49 % 1014,4 hPa 0,00 l/m² 51,3 km/h (7 Bft) S-SW 195 ° 0 min 644 lux 0 W/m² 11,1 °C
01.06.2026 21:45 16,4 °C 25,5 °C 16,3 °C 69 % 49 % 1014,4 hPa 0,00 l/m² 51,3 km/h (7 Bft) S-SW 195 ° 0 min 214 lux 0 W/m² 10,7 °C
01.06.2026 22:00 16,1 °C 25,3 °C 16,0 °C 70 % 50 % 1014,4 hPa 0,00 l/m² 51,3 km/h (7 Bft) S-SW 195 ° 0 min 56 lux 0 W/m² 10,6 °C
01.06.2026 22:15 15,7 °C 25,3 °C 15,7 °C 71 % 50 % 1014,5 hPa 0,00 l/m² 51,3 km/h (7 Bft) S-SW 195 ° 0 min 8 lux 0 W/m² 10,5 °C
01.06.2026 22:30 15,4 °C 25,2 °C 15,4 °C 71 % 51 % 1014,5 hPa 0,00 l/m² 51,3 km/h (7 Bft) S-SW 195 ° 0 min 0 lux 0 W/m² 10,2 °C
01.06.2026 22:45 15,1 °C 25,0 °C 15,1 °C 72 % 51 % 1014,6 hPa 0,00 l/m² 51,3 km/h (7 Bft) S-SW 195 ° 0 min 0 lux 0 W/m² 10,1 °C
01.06.2026 23:00 14,9 °C 24,9 °C 14,9 °C 72 % 51 % 1014,6 hPa 0,00 l/m² 51,3 km/h (7 Bft) S-SW 195 ° 0 min 0 lux 0 W/m² 9,9 °C
01.06.2026 23:15 14,8 °C 24,8 °C 14,5 °C 72 % 51 % 1013,6 hPa 0,00 l/m² 51,3 km/h (7 Bft) S-SW 195 ° 0 min 0 lux 0 W/m² 9,8 °C
01.06.2026 23:30 14,4 °C 24,7 °C 14,2 °C 73 % 53 % 1013,6 hPa 0,00 l/m² 51,3 km/h (7 Bft) S-SW 195 ° 0 min 0 lux 0 W/m² 9,6 °C
01.06.2026 23:45 14,1 °C 24,7 °C 14,0 °C 74 % 53 % 1013,6 hPa 0,00 l/m² 51,3 km/h (7 Bft) S-SW 195 ° 0 min 0 lux 0 W/m² 9,5 °C
_ Min-Zeit 01:45 06:45 05:30 18:45 18:00 23:15 - 00:00 - - - - - 18:45
Minimum _ 13,9 °C 22,4 °C 12,0 °C 38 % 15 % 1013,6 hPa - 51,3 km/h (7 Bft) - - - - - 8,3 °C
_ Max-Zeit 16:45 18:30 16:30 00:00 06:00 13:45 01:00 00:00 - - 08:00 14:15 14:15 07:45
Maximum _ 23,5 °C 26,4 °C 25,0 °C 83 % 95 % 1016,0 hPa 0,22 l/m² 51,3 km/h
S-SW (7 Bft)
- - 15 min 103 klux 671 W/m² 15,0 °C
Durchschnitt _ 18,2 °C 24,4 °C 17,9 °C 65 % 54 % 1014,4 hPa #0,22 l/m² 51,3 km/h (7 Bft) S-SW - #9:15 h 31,2 klux 300 W/m² 11,1 °C